Flag for China Weather past 2 weeks in Guiyang, Guizhou, China

Now
75 °F

Broken clouds.


Feels Like: 77 °F
Forecast: 65 / 69 °F
Wind: 8 mph from Northeast

Location: Guiyang Airport

Current Time: Sep 16, 2014 at 5:39:01 PM

Latest Report: Sep 16, 2014 at 5:00 PM


Visibility: N/A

Pressure: 29.86 "Hg

Humidity: 74%

Dew point: 66 °F

Location of GuiyangLocation

Historic Weather in Guiyang — Graph

°F

Guiyang temperature yesterday

Maximum temperature yesterday: 84 °F (at 4:00 PM)
Minimum temperature yesterday: 70 °F (at 5:00 AM)
Average temperature yesterday: 75 °F

Past Weeks' High & Low Weather Summary

 TemperatureHumidityPressure
High91 °F (Sep 13, 3:00 PM)100% (Sep 4, 10:00 PM)30.12 "Hg (Sep 4, 10:00 PM)
Low63 °F (Sep 3, 4:00 AM)49% (Sep 13, 3:00 PM)29.77 "Hg (Sep 11, 5:00 PM)
Average74 °F80%29.92 "Hg
* Reported Sep 1 4:00 PM — Sep 16 4:00 PM, Guiyang, Weather by CustomWeather, © 2014

Note: Actual official high and low records may vary slightly from our data, if they occured in-between our weather recording intervals... More about our weather records

Advertising

Guiyang weather history for previous 24 hours

 ConditionsComfort  
Time TempWeatherWind HumidityBarometerVisibility
4:00 PM
Sep 16
75 °FScattered clouds.6 mph74%29.86 "HgN/A
3:00 PM77 °FPartly sunny.8 mph69%29.86 "HgN/A
2:00 PM79 °FPartly sunny.8 mph65%29.89 "HgN/A
1:00 PM73 °FMostly cloudy.6 mph74%29.92 "HgN/A
12:00 PM73 °FBroken clouds.6 mph78%29.92 "HgN/A
11:00 AM75 °FPartly sunny.8 mph74%29.95 "HgN/A
10:00 AM70 °FPartly sunny.6 mph83%29.95 "HgN/A
9:00 AM70 °FPartly sunny.8 mph83%29.95 "HgN/A
8:00 AM68 °FPartly sunny.3 mph88%29.95 "HgN/A
7:00 AM68 °FMostly cloudy.6 mph88%29.92 "HgN/A
6:00 AM66 °FMostly cloudy.6 mph94%29.92 "HgN/A
5:00 AM66 °FMostly cloudy.8 mph94%29.92 "HgN/A
4:00 AM68 °FMostly cloudy.3 mph94%29.95 "HgN/A
3:00 AM68 °FMostly cloudy.6 mph88%29.95 "HgN/A
2:00 AM70 °FMostly cloudy.6 mph83%29.95 "HgN/A
1:00 AM68 °FMostly cloudy.6 mph88%29.95 "HgN/A
12:00 AM70 °FMostly cloudy.6 mph83%29.98 "HgN/A
11:00 PM
Sep 15
70 °FPartly cloudy.6 mph83%29.95 "HgN/A
10:00 PM72 °FPartly cloudy.6 mph83%29.95 "HgN/A
9:00 PM72 °FPassing clouds.3 mph88%29.95 "Hg4 mi
8:00 PM73 °FClear.3 mph83%29.89 "Hg5 mi
7:00 PM75 °FPassing clouds.3 mph78%29.86 "HgN/A
6:00 PM79 °FScattered clouds.6 mph70%29.86 "HgN/A
5:00 PM81 °FPartly sunny.6 mph70%29.86 "HgN/A
Weather by CustomWeather, © 2014

See weather overviewHow to use our weather pages